{"data":{"norad_id":52567,"epoch":"2026-05-25T03:28:21.528768Z","epoch_age_seconds":62738,"freshness":"FRESH","line1":"1 52567U 22051AL  26145.14469362  .00002707  00000+0  18821-3 0  9996","line2":"2 52567  53.2137 135.9009 0001299  96.9278 263.1861 15.08819183223128","mean_motion":15.08819183,"eccentricity":0.0001299,"inclination_deg":53.2137,"raan_deg":135.9009,"arg_perigee_deg":96.9278,"mean_anomaly_deg":263.1861,"bstar":0.00018821,"rev_number":22312,"period_min":95.438871418432,"perigee_km":538.90837800864,"apogee_km":540.70565986476,"semimajor_km":6917.9440189367,"source":"CELESTRAK","updated_at":"2026-05-25T13:38:17.167952Z"}}